IZ0HCD-13 Weather Reports


Display with metric or nautical units.
time (UTC)temp
F
wind
direction
speed
MPH
gust
MPH
rain 1hr
in
rain 24hr
in
rain mn
in
humidity
%
barometer
mb
20260507054016 57 113 1.0 3.0 0.00 0.09 0.08 92 1014.2
20260507053037 57 113 2.0 4.0 0.00 0.10 0.08 92 1014.2
20260507052017 56 113 1.0 3.0 0.00 0.10 0.08 93 1014.2
20260507051017 56 90 1.0 3.0 0.00 0.10 0.08 92 1014.2
20260507050016 56 90 2.0 4.0 0.00 0.11 0.08 92 1014.1
20260507045017 56 90 1.0 3.0 0.00 0.11 0.08 92 1014.0
20260507044016 56 113 1.0 2.0 0.00 0.11 0.08 92 1014.0
20260507043016 56 113 1.0 2.0 0.00 0.11 0.08 92 1013.8
20260507042016 56 0.0 2.0 0.00 0.11 0.08 92 1013.7
20260507041036 56 113 1.0 3.0 0.00 0.11 0.08 92 1013.6
20260507040016 56 113 1.0 3.0 0.00 0.11 0.08 93 1013.6
20260507035016 56 113 1.0 3.0 0.00 0.11 0.08 93 1013.5
20260507034036 56 0.0 3.0 0.00 0.11 0.08 93 1013.4
20260507033036 56 113 1.0 4.0 0.00 0.11 0.08 92 1013.3
20260507032016 57 0.0 2.0 0.00 0.11 0.08 93 1013.4
20260507031016 57 0.0 2.0 0.00 0.11 0.08 93 1013.4
20260507030036 57 113 1.0 3.0 0.00 0.11 0.08 92 1013.4
20260507025016 57 0.0 2.0 0.00 0.11 0.08 92 1013.4
20260507024016 57 113 1.0 3.0 0.00 0.11 0.08 92 1013.4
20260507023022 57 113 2.0 4.0 0.01 0.11 0.08 92 1013.5
20260507022016 57 113 2.0 4.0 0.01 0.11 0.08 92 1013.5
20260507021016 57 113 2.0 4.0 0.01 0.11 0.08 92 1013.5
20260507020016 57 113 1.0 3.0 0.02 0.11 0.08 92 1013.5
20260507015036 57 113 1.0 3.0 0.03 0.11 0.08 92 1013.4
20260507014056 57 113 1.0 2.0 0.03 0.11 0.08 92 1013.4
20260507013016 57 113 2.0 5.0 0.03 0.10 0.07 92 1013.4
20260507012016 57 113 1.0 3.0 0.04 0.10 0.07 91 1013.4
20260507011016 57 113 1.0 3.0 0.04 0.10 0.07 91 1013.4
20260507010018 57 113 1.0 3.0 0.04 0.09 0.06 91 1013.4
20260507005018 58 113 2.0 4.0 0.03 0.08 0.05 91 1013.3
20260507004017 58 135 2.0 5.0 0.03 0.08 0.05 91 1013.4
20260507003017 58 0.0 1.0 0.02 0.07 0.04 91 1013.5
20260507002018 58 0.0 1.0 0.02 0.06 0.03 90 1013.5
20260507001017 58 0.0 1.0 0.02 0.06 0.03 90 1013.5
20260507000037 58 135 1.0 4.0 0.01 0.05 0.02 90 1013.4
20260506235017 59 135 1.0 3.0 0.02 0.05 0.02 90 1013.4
20260506234017 59 135 1.0 4.0 0.02 0.05 0.02 90 1013.4
20260506233017 59 135 2.0 5.0 0.02 0.05 0.02 90 1013.5
20260506232017 60 0.0 1.0 0.01 0.04 0.01 90 1013.5
20260506231017 60 0.0 1.0 0.01 0.04 0.01 89 1013.6
20260506230017 60 0.0 3.0 0.01 0.04 0.01 89 1013.7
20260506225017 60 0.0 2.0 0.00 0.03 0.00 88 1013.8
20260506224017 60 135 1.0 4.0 0.00 0.03 0.00 87 1013.9
20260506223017 60 0.0 2.0 0.00 0.03 0.00 87 1013.8
20260506222017 61 0.0 2.0 0.00 0.03 0.00 87 1013.7
20260506221017 61 135 1.0 7.0 0.00 0.03 0.00 87 1013.7
20260506220016 61 113 1.0 2.0 0.00 0.03 0.03 87 1013.6
20260506215017 61 113 1.0 4.0 0.00 0.03 0.03 87 1013.7
20260506214017 61 113 1.0 4.0 0.00 0.03 0.03 87 1013.7
20260506213017 61 135 2.0 5.0 0.00 0.03 0.03 87 1013.6
20260506212037 61 135 4.0 10.0 0.00 0.03 0.03 87 1013.7
20260506211037 61 135 3.0 10.0 0.00 0.03 0.03 87 1013.7
20260506210017 61 135 3.0 9.0 0.00 0.03 0.03 87 1013.7
20260506205016 61 135 2.0 5.0 0.00 0.03 0.03 87 1013.5
20260506204016 62 135 3.0 5.0 0.00 0.03 0.03 86 1013.5
20260506203016 62 135 1.0 4.0 0.00 0.03 0.03 86 1013.4
20260506202016 62 135 1.0 3.0 0.00 0.03 0.03 85 1013.4
20260506201016 62 135 2.0 6.0 0.00 0.03 0.03 85 1013.3
20260506200016 62 135 1.0 5.0 0.00 0.03 0.03 84 1013.1
20260506195016 62 158 1.0 4.0 0.00 0.03 0.03 84 1013.0
20260506194016 62 158 1.0 3.0 0.00 0.03 0.03 84 1012.9
20260506193016 62 158 2.0 6.0 0.00 0.03 0.03 84 1012.7
20260506192016 62 158 1.0 7.0 0.00 0.03 0.03 84 1012.6
20260506191036 62 158 1.0 5.0 0.00 0.03 0.03 84 1012.6
20260506190017 62 135 2.0 4.0 0.00 0.03 0.03 84 1012.5
20260506185016 63 158 1.0 4.0 0.00 0.03 0.03 83 1012.3
20260506184016 63 158 1.0 6.0 0.00 0.03 0.03 83 1012.2
20260506183016 63 0.0 2.0 0.00 0.03 0.03 83 1012.4
20260506182036 63 0.0 1.0 0.00 0.03 0.03 83 1012.3
20260506181036 63 0.0 3.0 0.00 0.03 0.03 82 1012.3
20260506180036 63 158 1.0 5.0 0.00 0.03 0.03 82 1012.2
20260506175016 64 158 2.0 7.0 0.00 0.03 0.03 82 1012.1
20260506174016 64 135 1.0 7.0 0.00 0.03 0.03 82 1012.3
20260506173016 64 180 3.0 7.0 0.00 0.03 0.03 81 1012.2
20260506172016 64 158 1.0 6.0 0.00 0.03 0.03 81 1012.1
20260506171017 64 180 2.0 10.0 0.00 0.03 0.03 81 1012.0
20260506170016 64 180 3.0 11.0 0.00 0.03 0.03 81 1012.1
20260506165036 64 158 2.0 11.0 0.00 0.03 0.03 81 1012.1
20260506164016 64 158 3.0 10.0 0.00 0.03 0.03 81 1012.1
20260506163016 65 158 2.0 7.0 0.00 0.03 0.03 81 1012.1
20260506162015 65 158 2.0 6.0 0.00 0.03 0.03 80 1012.1
20260506161016 65 180 3.0 12.0 0.00 0.03 0.03 79 1012.1
20260506160018 65 158 4.0 12.0 0.00 0.03 0.03 79 1012.0
20260506155018 65 158 3.0 12.0 0.00 0.03 0.03 80 1012.1
20260506154018 65 180 3.0 11.0 0.00 0.03 0.03 80 1012.1
20260506153018 65 180 3.0 10.0 0.00 0.03 0.03 81 1012.2
20260506152017 65 203 1.0 4.0 0.00 0.03 0.03 80 1012.1
20260506151018 65 0.0 3.0 0.00 0.03 0.03 80 1012.1
20260506150057 65 203 1.0 6.0 0.00 0.03 0.03 80 1012.1
20260506145017 64 203 2.0 5.0 0.00 0.03 0.03 79 1012.0
20260506144017 64 158 3.0 10.0 0.00 0.03 0.03 80 1012.0
20260506143017 66 158 5.0 11.0 0.00 0.03 0.03 75 1012.1
20260506142017 67 180 4.0 14.0 0.00 0.03 0.03 68 1012.0
20260506141017 68 180 5.0 12.0 0.00 0.03 0.03 65 1011.9
20260506140037 68 180 6.0 13.0 0.00 0.03 0.03 64 1012.0
20260506135017 68 158 4.0 11.0 0.00 0.03 0.03 63 1012.0
20260506134017 68 135 3.0 12.0 0.00 0.03 0.03 63 1012.1
20260506133017 69 180 5.0 14.0 0.00 0.03 0.03 62 1012.3
20260506132017 69 180 4.0 14.0 0.00 0.03 0.03 63 1012.6
20260506131017 68 158 4.0 11.0 0.00 0.03 0.03 63 1012.6
20260506130017 68 180 6.0 14.0 0.00 0.03 0.03 62 1012.7
20260506125037 68 135 4.0 16.0 0.00 0.03 0.03 63 1012.7
20260506124017 68 180 6.0 15.0 0.00 0.03 0.03 62 1012.7
20260506123057 68 180 3.0 10.0 0.00 0.03 0.03 64 1012.6
20260506122017 68 135 4.0 14.0 0.00 0.03 0.03 64 1012.5
20260506121017 68 135 2.0 9.0 0.00 0.03 0.03 65 1012.4
20260506120017 68 158 5.0 12.0 0.00 0.03 0.03 65 1012.6
20260506115017 68 180 3.0 9.0 0.00 0.03 0.03 65 1012.7
20260506114016 68 158 4.0 12.0 0.00 0.03 0.03 63 1012.9
20260506113037 69 180 5.0 14.0 0.00 0.03 0.03 62 1012.8
20260506112016 69 158 5.0 12.0 0.00 0.03 0.03 63 1012.8
20260506111016 69 158 6.0 15.0 0.00 0.03 0.03 61 1012.9
20260506110017 70 158 3.0 11.0 0.01 0.03 0.03 61 1012.9
20260506105016 68 180 5.0 12.0 0.01 0.03 0.03 62 1012.9
20260506104017 68 180 6.0 13.0 0.01 0.03 0.03 61 1013.0
20260506103016 67 135 3.0 10.0 0.01 0.03 0.03 65 1013.1
20260506102016 67 158 2.0 10.0 0.01 0.03 0.03 65 1013.2
20260506101016 66 158 5.0 15.0 0.01 0.03 0.03 65 1013.1
20260506100016 67 158 5.0 12.0 0.00 0.02 0.02 65 1013.0
20260506095016 65 158 5.0 12.0 0.00 0.02 0.02 68 1013.0
20260506094036 65 158 5.0 18.0 0.00 0.02 0.02 68 1013.1
20260506093016 65 158 2.0 7.0 0.00 0.02 0.02 72 1013.0
20260506092016 65 135 4.0 10.0 0.00 0.02 0.02 71 1013.0
20260506091016 64 135 2.0 7.0 0.00 0.02 0.02 74 1013.0
20260506090016 64 158 2.0 6.0 0.00 0.02 0.02 76 1013.0
20260506085016 63 158 2.0 6.0 0.00 0.02 0.02 77 1013.0
20260506084036 63 158 3.0 7.0 0.00 0.02 0.02 77 1012.9
20260506083016 63 113 2.0 6.0 0.00 0.02 0.02 79 1012.9
20260506082016 62 113 1.0 4.0 0.00 0.02 0.02 80 1012.9
20260506081016 61 113 2.0 7.0 0.00 0.02 0.02 80 1012.8
20260506073020 61 135 3.0 9.0 0.00 0.02 0.02 80 1012.9
20260506072016 60 135 6.0 11.0 0.00 0.02 0.02 82 1012.8
20260506071018 59 113 6.0 11.0 0.00 0.02 0.02 83 1012.8
20260506062017 58 135 1.0 7.0 0.01 0.02 0.02 86 1013.0
20260506061017 57 113 1.0 4.0 0.01 0.03 0.02 86 1013.0